EW1687 Weather Reports


time (UTC)temp
C
wind
direction
speed
KPH
gust
KPH
rain 1hr
cm
rain 24hr
cm
rain mn
cm
humidity
%
barometer
mb
20260504050551 5 0 0.0 0.0 0.00 0.00 0.00 75 1015.3
20260504045557 5 0 0.0 0.0 0.00 0.00 0.00 75 1015.5
20260504045052 6 0 0.0 0.0 0.00 0.00 0.00 75 1015.5
20260504044554 6 0 0.0 0.0 0.00 0.00 0.00 75 1015.5
20260504044050 6 0 0.0 4.8 0.00 0.00 0.00 74 1015.5
20260504043550 6 0 0.0 4.8 0.00 0.00 0.00 73 1015.4
20260504043112 6 242 1.6 4.8 0.00 0.00 0.00 73 1015.4
20260504042550 6 0 0.0 0.0 0.00 0.00 0.00 74 1015.4
20260504042055 6 0 0.0 0.0 0.00 0.00 0.00 74 1015.5
20260504041551 6 0 0.0 0.0 0.00 0.00 0.00 73 1015.5
20260504041050 6 0 0.0 0.0 0.00 0.00 0.00 73 1015.4
20260504040553 6 0 0.0 0.0 0.00 0.00 0.00 73 1015.3
20260504040051 6 0 0.0 0.0 0.00 0.00 0.00 73 1015.4
20260504035553 7 0 0.0 0.0 0.00 0.00 0.00 72 1015.2
20260504035050 7 0 0.0 0.0 0.00 0.00 0.00 72 1015.3
20260504034554 7 0 0.0 0.0 0.00 0.00 0.00 71 1015.2
20260504034053 7 0 0.0 0.0 0.00 0.00 0.00 70 1015.2
20260504033554 7 0 0.0 0.0 0.00 0.00 0.00 71 1015.2
20260504033102 7 0 0.0 0.0 0.00 0.00 0.00 70 1015.1
20260504032553 7 0 0.0 0.0 0.00 0.00 0.00 69 1015.2
20260504032050 7 0 0.0 0.0 0.00 0.00 0.00 66 1015.1
20260504031556 7 0 0.0 0.0 0.00 0.00 0.00 66 1015.1
20260504031050 7 0 0.0 0.0 0.00 0.00 0.00 65 1015.1
20260504030550 7 0 0.0 0.0 0.00 0.00 0.00 64 1015.0
20260504030109 8 0 0.0 0.0 0.00 0.00 0.00 63 1015.0
20260504025550 8 0 0.0 0.0 0.00 0.00 0.00 63 1014.9
20260504025054 8 0 0.0 0.0 0.00 0.00 0.00 63 1014.9
20260504024553 8 0 0.0 0.0 0.00 0.00 0.00 62 1014.9
20260504024050 8 0 0.0 0.0 0.00 0.00 0.00 63 1014.8
20260504023550 8 0 0.0 0.0 0.00 0.00 0.00 63 1014.9
20260504023057 8 0 0.0 4.8 0.00 0.00 0.00 64 1014.7
20260504022551 9 0 0.0 4.8 0.00 0.00 0.00 60 1014.8
20260504022054 9 0 1.6 4.8 0.00 0.00 0.00 57 1014.8
20260504021555 9 0 0.0 1.6 0.00 0.00 0.00 55 1014.7
20260504021051 9 0 0.0 0.0 0.00 0.00 0.00 55 1014.8
20260504020552 9 0 0.0 0.0 0.00 0.00 0.00 54 1014.9
20260504020057 9 0 0.0 3.2 0.00 0.00 0.00 53 1014.8
20260504015552 10 0 0.0 6.4 0.00 0.00 0.00 54 1014.8
20260504015052 10 242 1.6 6.4 0.00 0.00 0.00 55 1014.7
20260504014554 10 242 0.0 4.8 0.00 0.00 0.00 55 1014.7
20260504014051 10 242 3.2 4.8 0.00 0.00 0.00 52 1014.8
20260504013554 10 242 0.0 6.4 0.00 0.00 0.00 53 1014.7
20260504013055 10 0 0.0 6.4 0.00 0.00 0.00 54 1014.7
20260504012552 10 242 3.2 6.4 0.00 0.00 0.00 54 1014.6
20260504012051 10 275 3.2 6.4 0.00 0.00 0.00 55 1014.5
20260504011553 10 276 0.0 4.8 0.00 0.00 0.00 52 1014.5
20260504011050 10 0 0.0 3.2 0.00 0.00 0.00 50 1014.4
20260504010553 11 0 0.0 4.8 0.00 0.00 0.00 51 1014.4
20260504010059 11 276 0.0 4.8 0.00 0.00 0.00 50 1014.5
20260504005550 11 276 1.6 4.8 0.00 0.00 0.00 47 1014.2
20260504005050 11 276 0.0 4.8 0.00 0.00 0.00 46 1014.4
20260504004551 12 276 1.6 4.8 0.00 0.00 0.00 46 1014.3
20260504004051 12 276 3.2 4.8 0.00 0.00 0.00 45 1014.5
20260504003550 12 0 1.6 6.4 0.00 0.00 0.00 43 1014.4
20260504003053 13 277 3.2 9.7 0.00 0.00 0.00 41 1014.2
20260504002553 13 277 3.2 9.7 0.00 0.00 0.00 40 1014.0
20260504002054 13 276 4.8 9.7 0.00 0.00 0.00 39 1014.1
20260504001558 13 276 4.8 11.3 0.00 0.00 0.00 40 1014.1
20260504001050 13 276 4.8 11.3 0.00 0.00 0.00 39 1014.1
20260504000549 13 276 4.8 12.9 0.00 0.00 0.00 39 1013.9
20260504000058 13 277 6.4 12.9 0.00 0.00 0.00 39 1014.0
20260503235549 14 279 6.4 12.9 0.00 0.00 0.00 38 1013.9
20260503235053 14 279 6.4 11.3 0.00 0.00 0.00 38 1013.8
20260503234553 14 286 4.8 12.9 0.00 0.00 0.00 38 1013.8
20260503234051 14 283 6.4 16.1 0.00 0.00 0.00 37 1013.7
20260503233550 15 271 9.7 16.1 0.00 0.00 0.00 37 1013.6
20260503233053 15 271 8.0 12.9 0.00 0.00 0.00 37 1013.5
20260503232555 15 265 6.4 16.1 0.00 0.00 0.00 37 1013.7
20260503232051 15 291 8.0 19.3 0.00 0.00 0.00 36 1013.5
20260503231555 15 278 9.7 20.9 0.00 0.00 0.00 35 1013.4
20260503231051 15 284 11.3 20.9 0.00 0.00 0.00 36 1013.6
20260503230552 15 281 12.9 20.9 0.00 0.00 0.00 36 1013.7
20260503230110 15 279 11.3 19.3 0.00 0.00 0.00 36 1013.7
20260503225552 16 273 11.3 19.3 0.00 0.00 0.00 34 1013.6
20260503225052 16 268 9.7 17.7 0.00 0.00 0.00 35 1013.6
20260503224552 16 265 11.3 20.9 0.00 0.00 0.00 33 1013.6
20260503224052 16 291 11.3 20.9 0.00 0.00 0.00 33 1013.6
20260503223552 16 298 11.3 19.3 0.00 0.00 0.00 33 1013.5
20260503223109 16 286 11.3 19.3 0.00 0.00 0.00 34 1013.6
20260503222551 16 319 11.3 27.4 0.00 0.00 0.00 34 1013.7
20260503222051 16 274 19.3 27.4 0.00 0.00 0.00 34 1013.7
20260503221556 16 252 12.9 29.0 0.00 0.00 0.00 33 1013.7
20260503221052 16 292 16.1 29.0 0.00 0.00 0.00 32 1013.8
20260503220553 16 288 9.7 19.3 0.00 0.00 0.00 32 1013.7
20260503220057 16 284 11.3 20.9 0.00 0.00 0.00 33 1013.9
20260503215551 16 296 12.9 25.7 0.00 0.00 0.00 34 1014.0
20260503215052 16 273 16.1 25.7 0.00 0.00 0.00 33 1013.8
20260503214556 16 281 9.7 25.7 0.00 0.00 0.00 31 1013.9
20260503214052 16 312 14.5 24.1 0.00 0.00 0.00 34 1013.7
20260503213552 16 297 16.1 24.1 0.00 0.00 0.00 35 1013.7
20260503213056 16 292 12.9 29.0 0.00 0.00 0.00 32 1013.8
20260503212552 16 295 19.3 29.0 0.00 0.00 0.00 32 1013.8
20260503212052 16 262 12.9 27.4 0.00 0.00 0.00 34 1013.8
20260503211551 16 301 14.5 27.4 0.00 0.00 0.00 34 1013.6
20260503211052 16 277 17.7 27.4 0.00 0.00 0.00 34 1013.6
20260503210553 16 292 11.3 25.7 0.00 0.00 0.00 32 1013.7
20260503210052 16 291 14.5 33.8 0.00 0.00 0.00 32 1013.7
20260503205552 16 315 12.9 33.8 0.00 0.00 0.00 32 1013.7
20260503205053 17 296 16.1 27.4 0.00 0.00 0.00 33 1013.7
20260503204554 16 256 17.7 30.6 0.00 0.00 0.00 33 1013.6
20260503204051 16 290 12.9 30.6 0.00 0.00 0.00 33 1013.7
20260503203552 16 270 11.3 19.3 0.00 0.00 0.00 33 1013.7
20260503203053 15 284 11.3 19.3 0.00 0.00 0.00 37 1013.6
20260503202551 15 322 9.7 25.7 0.00 0.00 0.00 36 1013.8
20260503202051 15 300 14.5 35.4 0.00 0.00 0.00 35 1013.8
20260503201555 16 310 19.3 35.4 0.00 0.00 0.00 32 1013.9
20260503201052 16 263 17.7 27.4 0.00 0.00 0.00 32 1013.8
20260503200550 16 286 9.7 22.5 0.00 0.00 0.00 35 1013.9
20260503200054 16 306 16.1 25.7 0.00 0.00 0.00 33 1013.8
20260503195554 16 289 14.5 25.7 0.00 0.00 0.00 35 1014.0
20260503195050 16 309 14.5 29.0 0.00 0.00 0.00 36 1014.0
20260503194606 16 281 19.3 32.2 0.00 0.00 0.00 33 1014.2
20260503194053 16 299 22.5 32.2 0.00 0.00 0.00 31 1014.2
20260503193554 16 331 16.1 25.7 0.00 0.00 0.00 33 1014.2
20260503193053 15 311 9.7 20.9 0.00 0.00 0.00 34 1014.2
20260503192554 15 303 12.9 27.4 0.00 0.00 0.00 35 1014.3
20260503192057 15 281 16.1 27.4 0.00 0.00 0.00 33 1014.5
20260503191600 15 292 9.7 25.7 0.00 0.00 0.00 34 1014.5
20260503191055 15 259 11.3 32.2 0.00 0.00 0.00 37 1014.7
20260503190555 15 282 19.3 32.2 0.00 0.00 0.00 32 1014.7
20260503190053 15 255 17.7 30.6 0.00 0.00 0.00 35 1014.6
20260503185553 15 302 16.1 24.1 0.00 0.00 0.00 34 1014.7
20260503185056 15 262 16.1 24.1 0.00 0.00 0.00 34 1014.9
20260503184555 15 311 11.3 33.8 0.00 0.00 0.00 35 1015.0
20260503184054 15 350 11.3 41.8 0.00 0.00 0.00 36 1015.0
20260503183555 15 280 22.5 41.8 0.00 0.00 0.00 35 1015.1
20260503183058 15 304 17.7 33.8 0.00 0.00 0.00 37 1014.9
20260503182554 15 279 16.1 32.2 0.00 0.00 0.00 37 1015.1
20260503182054 15 329 11.3 35.4 0.00 0.00 0.00 35 1015.1
20260503181605 14 272 19.3 35.4 0.00 0.00 0.00 35 1015.2
20260503181057 14 265 12.9 29.0 0.00 0.00 0.00 38 1015.2
20260503180553 13 281 16.1 29.0 0.00 0.00 0.00 37 1015.3
20260503180054 13 266 11.3 29.0 0.00 0.00 0.00 37 1015.2
20260503175554 14 319 11.3 29.0 0.00 0.00 0.00 37 1015.5
20260503175056 15 306 14.5 24.1 0.00 0.00 0.00 40 1015.2
20260503174604 13 263 16.1 29.0 0.00 0.00 0.00 41 1015.3
20260503174054 13 277 11.3 33.8 0.00 0.00 0.00 36 1015.3
20260503173554 13 296 19.3 33.8 0.00 0.00 0.00 37 1015.5
20260503173105 14 315 17.7 32.2 0.00 0.00 0.00 38 1015.4
20260503172553 13 296 14.5 25.7 0.00 0.00 0.00 42 1015.4
20260503172051 13 308 14.5 27.4 0.00 0.00 0.00 38 1015.5
20260503171554 13 302 17.7 30.6 0.00 0.00 0.00 39 1015.4
20260503171051 13 305 14.5 30.6 0.00 0.00 0.00 39 1015.5
20260503170552 13 275 11.3 24.1 0.00 0.00 0.00 39 1015.5
20260503170105 13 317 14.5 24.1 0.00 0.00 0.00 37 1015.4
20260503150552 11 284 22.5 38.6 0.00 0.00 0.00 41 1016.5
20260503131051 7 350 8.0 19.3 0.00 0.00 0.00 55 1016.6
20260503130551 7 288 9.7 19.3 0.00 0.00 0.00 56 1016.7
20260503120107 6 277 9.7 20.9 0.00 0.00 0.00 63 1016.5
20260503110551 5 320 8.0 16.1 0.00 0.00 0.00 65 1015.9
20260503081552 6 284 11.3 20.9 0.00 0.00 0.00 63 1013.9
20260503081053 6 283 11.3 17.7 0.00 0.00 0.00 62 1013.9
20260503080552 6 278 12.9 19.3 0.00 0.00 0.00 62 1014.0
20260503072556 6 286 8.0 19.3 0.00 0.00 0.00 60 1013.6
20260503072052 6 302 8.0 19.3 0.00 0.00 0.00 61 1013.7
20260503071555 6 313 9.7 19.3 0.00 0.00 0.00 61 1013.7
20260503071051 6 291 11.3 19.3 0.00 0.00 0.00 61 1013.5
20260503070555 6 301 11.3 19.3 0.00 0.00 0.00 61 1013.7